Rbgn^[z[y[W
メイン
   新天体発見情報
     Comet P/2019 A7 = 2021 K4 (PANSTARRS)
投稿するにはまず登録を

スレッド表示 | 古いものから 前のトピック | 次のトピック | 下へ
投稿者 スレッド
佐藤裕久
投稿日時: 2021-8-18 22:52
モデレータ
登録日: 2005-6-12
居住地: 日本
投稿: 2424
オンライン
Comet P/2019 A7 = 2021 K4 (PANSTARRS)

M. Micheliの通報によると、5月17日UT、H. H. HsiehとJ. ChavezがチリのCerro Pachonにある
Gemini天文台の8.1-m "Gemini South" 望遠鏡と、6月13日UT、HsiehとD. FaesがMauna Keaにあ
る3.6-m Canada-France-Hawaii望遠鏡で得た画像からP/2019 A7 (CBET 4605参照)を検出した。
この彗星の外観は恒星状と推定される。

検出位置は次のとおり、

     2021 UT             R.A. (2000) Decl.       Mag.   Observer
     May  17.17128   16 16 57.86   -35 57 10.0   22.2   Hsieh
          17.17518   16 16 57.67   -35 57 09.3   22.1     "
          17.17907   16 16 57.45   -35 57 08.5   22.6     "
     June 13.36429   15 53 48.06   -33 40 19.0   22.6     "
          13.36816   15 53 47.88   -33 40 17.5   22.6     "
          13.37203   15 53 47.70   -33 40 16.1   22.6     "

NK 3846およびICQ's Comet Handbooks for 2020 and 2021の中野主一氏の予報に対して、補正は
不要であった。
MPC 114605のWilliamsの予報に対して、Delta(T)は、-0.017 dayであった。
MPEC 2021-P47のRudenkos予報に対して、Delta(T)は、-0.020 dayであった。

MPCの連結軌道要素と位置推算表は次のとおり、

Orbital elements:
    P/2019 A7 (PANSTARRS)                                                       
Epoch 2018 Jan. 2.0 TT = JDT 2458120.5                                          
T 2018 Jan. 8.33197 TT                                  Rudenko                 
q   2.6760288            (2000.0)            P               Q                  
n   0.17309838     Peri.  119.60885     +0.72375087     -0.62140237             
a   3.1886539      Node   280.52536     +0.47888658     +0.76538297             
e   0.1607654      Incl.   17.77070     +0.49684235     +0.16747541             
P   5.69                                                                        
From 98 observations 2017 Oct. 1-2021 June 13, mean residual 0".4.              
                                                                                
    P/2019 A7 (PANSTARRS)                                                       
Epoch 2023 Sept. 13.0 TT = JDT 2460200.5                                        
T 2023 Sept. 12.14497 TT                                Rudenko                 
q   2.6737769            (2000.0)            P               Q                  
n   0.17294561     Peri.  118.77039     +0.73383660     -0.60943982             
a   3.1905314      Node   280.42870     +0.46652220     +0.77324094             
e   0.1619650      Incl.   17.76733     +0.49380246     +0.17516150             
P   5.70                                                                        
From 98 observations 2017 Oct. 1-2021 June 13, mean residual 0".4.              
                                                                                
    P/2019 A7 (PANSTARRS)                                                       
Epoch 2029 May 24.0 TT = JDT 2462280.5                                          
T 2029 May 17.81089 TT                                  Rudenko                 
q   2.6778413            (2000.0)            P               Q                  
n   0.17308034     Peri.  118.13273     +0.74099154     -0.60061455             
a   3.1888755      Node   280.38533     +0.45730507     +0.77883887             
e   0.1602553      Incl.   17.77769     +0.49173530     +0.18075444             
P   5.69                                                                        
From 98 observations 2017 Oct. 1-2021 June 13, mean residual 0".4.              
                                                                                
    P/2019 A7 (PANSTARRS)                                                       
Epoch 2021 July 5.0 TT = JDT 2459400.5                                          
T 2023 Sept. 14.60243 TT                                Rudenko                 
q   2.6720838            (2000.0)            P               Q                  
n   0.17334771     Peri.  119.22813     +0.72788197     -0.61652407             
a   3.1855956      Node   280.52203     +0.47372455     +0.76859605             
e   0.1611980      Incl.   17.77480     +0.49575487     +0.17075765             
P   5.69                                                                        
From 98 observations 2017 Oct. 1-2021 June 13, mean residual 0".4.              
                                                                                
Ephemeris:
Date    TT    R. A. (2000) Decl.     Delta      r    Elong.  Phase   m1
2021 07 09    15 40 39.5 -30 56 46   2.8356  3.5996   132.3    12.1  21.3
...
2021 07 24    15 39 19.3 -29 32 44   2.9969  3.5871   117.9    14.5  21.4
...
2021 08 01    15 40 32.5 -28 54 56   3.0947  3.5801   110.6    15.4  21.5
...
2021 08 07    15 42 17.1 -28 30 06   3.1718  3.5747   105.2    15.9  21.5
2021 08 08    15 42 38.6 -28 26 15   3.1849  3.5738   104.3    16.0  21.5
2021 08 09    15 43 01.1 -28 22 29   3.1981  3.5729   103.5    16.0  21.6
...
2021 08 15    15 45 39.1 -28 01 39   3.2780  3.5674    98.3    16.3  21.6
...
2021 08 23    15 50 06.8 -27 38 16   3.3864  3.5599    91.5    16.5  21.7
...
2021 09 07    16 01 05.3 -27 06 13   3.5896  3.5452    79.4    16.2  21.8

(MPEC 2021-P78、CBET 5010、oaa-comet 2105)

スレッド表示 | 古いものから 前のトピック | 次のトピック | トップ

投稿するにはまず登録を
 
© 1999 Tsutomu Seki.